This demonstration page uses our WeatherBlox Daily Observations layout. Learn more.

Left ArrowRight Arrow

41.86663, -103.66717

Hourly Observations for March 29, 2017

Temp ( °F °C ) Dew Point ( °F °C ) Humidity (%) Winds ( mph kmh ) Pressure ( in mb ) Visibility ( mi km ) Precip ( " mm )
12:53 am 00:53 Cloudy 40 4.4 37 2.8 89 89 N 3 6 30.12 1020 10 16 0.00 0.00
1:20 am 01:20 Cloudy with Mist and Fog 39 4 37 3 93 93 N 3 6 30.18 1022 4 6 0.00 0.00
1:31 am 01:31 Cloudy with Mist and Fog 40 4.4 37 2.8 89 89 NE 5 7 30.18 1022 4 6 0.00 0.00
1:53 am 01:53 Cloudy 40 4.4 37 2.8 89 89 VRB 5 7 30.13 1020 7 11 0.00 0.00
2:20 am 02:20 Cloudy 39 4 36 2 87 87 Calm 30.18 1022 10 16 0.00 0.00
2:53 am 02:53 Cloudy with Mist and Fog 39 3.9 37 2.8 93 93 Calm 30.12 1020 6 10 0.00 0.00
3:03 am 03:03 Cloudy with Mist and Fog 40 4.4 37 2.8 89 89 Calm 30.18 1022 5 8 0.00 0.00
3:53 am 03:53 Cloudy 40 4.4 37 2.8 89 89 SSW 3 6 30.12 1020 9 14 0.00 0.00
4:09 am 04:09 Cloudy 39 3.9 37 2.8 93 93 SW 5 7 30.18 1022 8 13 0.00 0.00
4:13 am 04:13 Cloudy 39 3.9 37 2.8 93 93 SW 3 6 30.18 1022 8 13 0.00 0.00
4:53 am 04:53 Cloudy 39 3.9 37 2.8 93 93 WSW 5 7 30.13 1020 10 16 0.00 0.00
5:09 am 05:09 Cloudy 39 3.9 37 2.8 93 93 W 3 6 30.18 1022 10 16 0.00 0.00
5:20 am 05:20 Cloudy 39 4 37 3 93 93 WNW 5 7 30.15 1021 10 16 0.00 0.00
5:39 am 05:39 Cloudy 39 3.9 37 2.8 93 93 NW 6 9 30.18 1022 10 16 0.00 0.00
5:53 am 05:53 Cloudy 39 3.9 37 2.8 93 93 NNW 6 9 30.12 1020 10 16 0.00 0.00
6:07 am 06:07 Cloudy 40 4.4 37 2.8 89 89 NW 6 9 30.18 1022 10 16 0.00 0.00
6:29 am 06:29 Cloudy 39 3.9 36 2.2 89 89 NNW 5 7 30.18 1022 10 16 0.00 0.00
6:53 am 06:53 Cloudy 39 3.9 37 2.8 93 93 NW 3 6 30.14 1021 10 16 0.00 0.00
7:35 am 07:35 Cloudy 40 4.4 37 2.8 89 89 WNW 6 9 30.18 1022 10 16 0.00 0.00
7:53 am 07:53 Cloudy 41 5 37 2.8 86 86 WNW 7 11 30.12 1020 10 16 0.00 0.00
8:05 am 08:05 Cloudy 41 5 38 3.3 89 89 WNW 7 11 30.18 1022 10 16 0.00 0.00
8:53 am 08:53 Cloudy 43 6.1 39 3.9 86 86 WNW 9 15 30.12 1020 10 16 0.00 0.00
9:32 am 09:32 Cloudy 45 7 39 4 81 81 WNW 12 19 30.12 1020 10 16 0.00 0.00
9:44 am 09:44 Cloudy 45 7 39 4 81 81 NW 10 17 30.12 1020 10 16 0.00 0.00
9:53 am 09:53 Cloudy 46 7.8 40 4.4 79 79 NW 8 13 30.12 1020 10 16 0.00 0.00
10:35 am 10:35 Cloudy 47 8.3 40 4.4 77 77 WNW 7 11 30.12 1020 10 16 0.00 0.00
10:53 am 10:53 Cloudy 46 7.8 40 4.4 79 79 W 7 11 30.11 1020 10 16 0.00 0.00
11:39 am 11:39 Cloudy 49 9.4 37 2.8 64 64 NNW 5 7 30.06 1018 10 16 0.00 0.00
11:53 am 11:53 Cloudy 49 9.4 37 2.8 64 64 N 8 13 30.07 1018 10 16 0.00 0.00
12:53 pm 12:53 Cloudy 51 10.6 39 3.9 64 64 NNE 6 9 30.03 1017 10 16 0.00 0.00
1:53 pm 13:53 Mostly Cloudy 56 13.3 37 2.8 49 49 NNW 10 17 29.98 1015 10 16 0.00 0.00
2:53 pm 14:53 Mostly Cloudy 55 12.8 36 2.2 49 49 NNE 15 24 29.96 1015 10 16 0.00 0.00
3:53 pm 15:53 Partly Cloudy 56 13.3 37 2.8 49 49 N 12 19 29.93 1014 10 16 0.00 0.00
4:53 pm 16:53 Mostly Sunny 59 15 37 2.8 44 44 NNE 14 22 29.91 1013 10 16 0.00 0.00
5:53 pm 17:53 Sunny 57 13.9 37 2.8 47 47 NE 13 20 29.91 1013 10 16 0.00 0.00
6:53 pm 18:53 Sunny 51 10.6 38 3.3 61 61 E 14 22 29.94 1014 10 16 0.00 0.00
7:53 pm 19:53 Clear 46 7.8 38 3.3 73 73 ESE 9 15 29.94 1014 10 16 0.00 0.00
8:53 pm 20:53 Clear 42 5.6 36 2.2 79 79 ESE 7 11 29.96 1014 10 16 0.00 0.00
9:53 pm 21:53 Clear 39 3.9 35 1.7 86 86 SE 6 9 29.96 1015 10 16 0.00 0.00
10:53 pm 22:53 Clear 36 2.2 33 0.6 89 89 E 5 7 29.96 1014 10 16 0.00 0.00
11:53 pm 23:53 Clear 36 2.2 33 0.6 89 89 Calm 29.94 1014 10 16 0.00 0.00

Powered by AerisWeather